| time (UTC) | temp C | wind direction | speed KPH | gust KPH | rain 1hr cm | rain 24hr cm | rain mn cm | humidity % | barometer mb |
| 20260510120544 | 7 | 296 | 8.0 | 14.5 | 0.00 | 0.00 | 0.00 | 96 | 1014.7 |
| 20260510120051 | 7 | 311 | 8.0 | 14.5 | 0.00 | 0.00 | 0.00 | 96 | 1014.7 |
| 20260510115541 | 7 | 299 | 6.4 | 14.5 | 0.00 | 0.00 | 0.00 | 96 | 1014.7 |
| 20260510115041 | 7 | 311 | 6.4 | 14.5 | 0.00 | 0.00 | 0.00 | 96 | 1014.7 |
| 20260510114554 | 7 | 313 | 6.4 | 14.5 | 0.00 | 0.00 | 0.00 | 96 | 1014.7 |
| 20260510114042 | 7 | 313 | 8.0 | 16.1 | 0.00 | 0.00 | 0.00 | 96 | 1014.7 |
| 20260510113543 | 7 | 287 | 9.7 | 17.7 | 0.00 | 0.00 | 0.00 | 96 | 1014.7 |
| 20260510113048 | 7 | 309 | 9.7 | 17.7 | 0.00 | 0.00 | 0.00 | 96 | 1014.7 |
| 20260510112540 | 7 | 320 | 6.4 | 16.1 | 0.00 | 0.00 | 0.00 | 96 | 1014.6 |
| 20260510112041 | 7 | 315 | 8.0 | 16.1 | 0.00 | 0.00 | 0.00 | 96 | 1014.6 |
| 20260510111551 | 7 | 313 | 8.0 | 16.1 | 0.00 | 0.00 | 0.00 | 96 | 1014.5 |
| 20260510111041 | 7 | 310 | 9.7 | 16.1 | 0.00 | 0.00 | 0.00 | 96 | 1014.4 |
| 20260510110549 | 7 | 309 | 9.7 | 19.3 | 0.00 | 0.00 | 0.00 | 96 | 1014.5 |
| 20260510110045 | 7 | 317 | 9.7 | 19.3 | 0.00 | 0.00 | 0.00 | 96 | 1014.4 |
| 20260510105543 | 7 | 301 | 11.3 | 19.3 | 0.00 | 0.00 | 0.00 | 96 | 1014.4 |
| 20260510105041 | 7 | 317 | 11.3 | 19.3 | 0.00 | 0.00 | 0.00 | 96 | 1014.4 |
| 20260510104555 | 7 | 302 | 12.9 | 19.3 | 0.00 | 0.00 | 0.00 | 96 | 1014.3 |
| 20260510104044 | 7 | 302 | 11.3 | 17.7 | 0.00 | 0.00 | 0.00 | 96 | 1014.4 |
| 20260510103543 | 7 | 298 | 9.7 | 17.7 | 0.00 | 0.00 | 0.00 | 96 | 1014.4 |
| 20260510103048 | 7 | 311 | 11.3 | 17.7 | 0.00 | 0.00 | 0.00 | 96 | 1014.4 |
| 20260510102540 | 7 | 309 | 11.3 | 16.1 | 0.00 | 0.00 | 0.00 | 96 | 1014.3 |
| 20260510102040 | 7 | 312 | 9.7 | 16.1 | 0.00 | 0.00 | 0.00 | 96 | 1014.5 |
| 20260510101553 | 7 | 312 | 9.7 | 17.7 | 0.00 | 0.00 | 0.00 | 96 | 1014.4 |
| 20260510101044 | 7 | 305 | 11.3 | 17.7 | 0.00 | 0.00 | 0.00 | 96 | 1014.4 |
| 20260510100543 | 7 | 296 | 9.7 | 19.3 | 0.00 | 0.00 | 0.00 | 96 | 1014.4 |
| 20260510100211 | 7 | 309 | 11.3 | 19.3 | 0.00 | 0.00 | 0.00 | 96 | 1014.4 |
| 20260510095545 | 7 | 296 | 11.3 | 17.7 | 0.00 | 0.00 | 0.00 | 96 | 1014.3 |
| 20260510095044 | 7 | 310 | 11.3 | 17.7 | 0.00 | 0.00 | 0.00 | 96 | 1014.4 |
| 20260510094605 | 7 | 315 | 11.3 | 17.7 | 0.00 | 0.00 | 0.00 | 96 | 1014.3 |
| 20260510094044 | 7 | 295 | 11.3 | 17.7 | 0.00 | 0.00 | 0.00 | 96 | 1014.4 |
| 20260510093544 | 7 | 300 | 11.3 | 17.7 | 0.00 | 0.00 | 0.00 | 96 | 1014.4 |
| 20260510093055 | 7 | 306 | 11.3 | 17.7 | 0.00 | 0.00 | 0.00 | 96 | 1014.5 |
| 20260510092551 | 7 | 317 | 9.7 | 17.7 | 0.00 | 0.00 | 0.00 | 96 | 1014.5 |
| 20260510092045 | 7 | 316 | 11.3 | 17.7 | 0.00 | 0.00 | 0.00 | 96 | 1014.6 |
| 20260510091555 | 7 | 315 | 11.3 | 17.7 | 0.00 | 0.00 | 0.00 | 96 | 1014.6 |
| 20260510091047 | 7 | 321 | 11.3 | 17.7 | 0.00 | 0.00 | 0.00 | 96 | 1014.6 |
| 20260510090548 | 7 | 299 | 12.9 | 17.7 | 0.00 | 0.00 | 0.00 | 96 | 1014.6 |
| 20260510090056 | 7 | 302 | 11.3 | 17.7 | 0.00 | 0.00 | 0.00 | 96 | 1014.6 |
| 20260510085544 | 7 | 310 | 9.7 | 16.1 | 0.00 | 0.00 | 0.00 | 96 | 1014.7 |
| 20260510085044 | 7 | 306 | 8.0 | 16.1 | 0.00 | 0.00 | 0.00 | 96 | 1014.7 |
| 20260510084600 | 7 | 313 | 9.7 | 16.1 | 0.00 | 0.00 | 0.00 | 96 | 1014.8 |
| 20260510084044 | 7 | 306 | 11.3 | 16.1 | 0.00 | 0.00 | 0.00 | 96 | 1014.8 |
| 20260510083545 | 7 | 291 | 8.0 | 17.7 | 0.00 | 0.00 | 0.00 | 96 | 1014.7 |
| 20260510083112 | 7 | 302 | 11.3 | 19.3 | 0.00 | 0.00 | 0.00 | 96 | 1014.7 |
| 20260510082544 | 7 | 325 | 11.3 | 19.3 | 0.00 | 0.00 | 0.00 | 96 | 1014.7 |
| 20260510082044 | 8 | 338 | 11.3 | 19.3 | 0.00 | 0.00 | 0.00 | 96 | 1014.9 |
| 20260510081627 | 7 | 308 | 9.7 | 16.1 | 0.00 | 0.00 | 0.00 | 96 | 1014.9 |
| 20260510081044 | 7 | 309 | 8.0 | 16.1 | 0.00 | 0.00 | 0.00 | 96 | 1014.9 |
| 20260510080547 | 7 | 314 | 9.7 | 16.1 | 0.00 | 0.00 | 0.00 | 96 | 1014.8 |
| 20260510080056 | 8 | 294 | 8.0 | 16.1 | 0.00 | 0.00 | 0.00 | 96 | 1014.8 |
| 20260510075544 | 7 | 300 | 9.7 | 17.7 | 0.00 | 0.00 | 0.00 | 96 | 1015.0 |
| 20260510075044 | 7 | 306 | 9.7 | 17.7 | 0.00 | 0.00 | 0.00 | 96 | 1015.0 |
| 20260510074556 | 8 | 296 | 11.3 | 16.1 | 0.00 | 0.00 | 0.00 | 96 | 1015.1 |
| 20260510074046 | 8 | 307 | 8.0 | 14.5 | 0.00 | 0.00 | 0.00 | 96 | 1015.1 |
| 20260510073544 | 8 | 305 | 9.7 | 14.5 | 0.00 | 0.00 | 0.00 | 96 | 1015.1 |
| 20260510073053 | 8 | 312 | 8.0 | 14.5 | 0.00 | 0.00 | 0.00 | 96 | 1015.1 |
| 20260510072544 | 8 | 301 | 8.0 | 16.1 | 0.00 | 0.00 | 0.00 | 96 | 1015.1 |
| 20260510072043 | 8 | 304 | 8.0 | 16.1 | 0.00 | 0.00 | 0.00 | 95 | 1015.1 |
| 20260510071550 | 8 | 305 | 8.0 | 16.1 | 0.00 | 0.00 | 0.00 | 95 | 1015.1 |
| 20260510071048 | 8 | 299 | 8.0 | 12.9 | 0.00 | 0.00 | 0.00 | 96 | 1015.1 |
| 20260510070544 | 8 | 304 | 8.0 | 12.9 | 0.00 | 0.00 | 0.00 | 96 | 1015.1 |
| 20260510070053 | 8 | 306 | 6.4 | 12.9 | 0.00 | 0.00 | 0.00 | 96 | 1015.1 |
| 20260510065548 | 8 | 313 | 6.4 | 12.9 | 0.00 | 0.00 | 0.00 | 96 | 1015.0 |
| 20260510065044 | 8 | 311 | 6.4 | 14.5 | 0.00 | 0.00 | 0.00 | 96 | 1015.1 |
| 20260510064553 | 8 | 294 | 6.4 | 14.5 | 0.00 | 0.00 | 0.00 | 96 | 1015.0 |
| 20260510064044 | 8 | 304 | 6.4 | 12.9 | 0.00 | 0.00 | 0.00 | 96 | 1015.0 |
| 20260510063545 | 8 | 308 | 6.4 | 12.9 | 0.00 | 0.00 | 0.00 | 96 | 1015.1 |
| 20260510063055 | 8 | 305 | 6.4 | 12.9 | 0.00 | 0.00 | 0.00 | 96 | 1015.2 |
| 20260510062547 | 8 | 311 | 6.4 | 12.9 | 0.00 | 0.00 | 0.00 | 95 | 1015.2 |
| 20260510062045 | 8 | 304 | 6.4 | 12.9 | 0.00 | 0.00 | 0.00 | 95 | 1015.1 |
| 20260510061556 | 8 | 303 | 8.0 | 12.9 | 0.00 | 0.00 | 0.00 | 95 | 1015.1 |
| 20260510061044 | 8 | 302 | 6.4 | 12.9 | 0.00 | 0.00 | 0.00 | 95 | 1015.1 |
| 20260510060544 | 8 | 310 | 6.4 | 12.9 | 0.00 | 0.00 | 0.00 | 95 | 1015.1 |
| 20260510060053 | 8 | 297 | 6.4 | 12.9 | 0.00 | 0.00 | 0.00 | 95 | 1015.1 |
| 20260510055544 | 8 | 304 | 6.4 | 14.5 | 0.00 | 0.00 | 0.00 | 95 | 1015.2 |
| 20260510055044 | 8 | 301 | 6.4 | 14.5 | 0.00 | 0.00 | 0.00 | 95 | 1015.1 |
| 20260510054554 | 8 | 299 | 6.4 | 14.5 | 0.00 | 0.00 | 0.00 | 95 | 1015.1 |
| 20260510054044 | 8 | 296 | 6.4 | 14.5 | 0.00 | 0.00 | 0.00 | 95 | 1015.1 |
| 20260510053545 | 8 | 302 | 8.0 | 14.5 | 0.00 | 0.00 | 0.00 | 95 | 1015.2 |
| 20260510053056 | 8 | 301 | 6.4 | 12.9 | 0.00 | 0.00 | 0.00 | 95 | 1015.1 |
| 20260510052544 | 8 | 300 | 6.4 | 12.9 | 0.00 | 0.00 | 0.00 | 95 | 1015.2 |
| 20260510052044 | 8 | 299 | 6.4 | 12.9 | 0.00 | 0.00 | 0.00 | 95 | 1015.2 |
| 20260510051551 | 8 | 302 | 6.4 | 12.9 | 0.00 | 0.00 | 0.00 | 95 | 1015.1 |
| 20260510051047 | 8 | 312 | 6.4 | 14.5 | 0.00 | 0.00 | 0.00 | 95 | 1015.1 |
| 20260510050544 | 8 | 315 | 8.0 | 14.5 | 0.00 | 0.00 | 0.00 | 95 | 1015.2 |
| 20260510050055 | 8 | 298 | 9.7 | 14.5 | 0.00 | 0.00 | 0.00 | 95 | 1015.2 |
| 20260510045544 | 8 | 294 | 6.4 | 12.9 | 0.00 | 0.00 | 0.00 | 95 | 1015.2 |
| 20260510045044 | 8 | 297 | 6.4 | 11.3 | 0.00 | 0.00 | 0.00 | 95 | 1015.2 |
| 20260510044551 | 8 | 308 | 4.8 | 12.9 | 0.00 | 0.00 | 0.00 | 95 | 1015.1 |
| 20260510044044 | 8 | 298 | 6.4 | 12.9 | 0.00 | 0.00 | 0.00 | 95 | 1015.1 |
| 20260510043544 | 8 | 300 | 6.4 | 12.9 | 0.00 | 0.00 | 0.00 | 95 | 1015.1 |
| 20260510043107 | 8 | 309 | 6.4 | 12.9 | 0.00 | 0.00 | 0.00 | 95 | 1015.0 |
| 20260510042544 | 8 | 304 | 6.4 | 14.5 | 0.00 | 0.00 | 0.00 | 95 | 1015.0 |
| 20260510042047 | 8 | 300 | 6.4 | 14.5 | 0.00 | 0.00 | 0.00 | 95 | 1015.0 |
| 20260510041555 | 8 | 308 | 8.0 | 14.5 | 0.00 | 0.00 | 0.00 | 95 | 1014.8 |
| 20260510041044 | 8 | 307 | 6.4 | 14.5 | 0.00 | 0.00 | 0.00 | 95 | 1014.9 |
| 20260510040544 | 8 | 309 | 8.0 | 14.5 | 0.00 | 0.00 | 0.00 | 95 | 1014.8 |
| 20260510040104 | 9 | 299 | 8.0 | 14.5 | 0.00 | 0.00 | 0.00 | 95 | 1014.8 |
| 20260510035544 | 9 | 299 | 6.4 | 14.5 | 0.00 | 0.00 | 0.00 | 95 | 1014.8 |
| 20260510035044 | 9 | 310 | 8.0 | 12.9 | 0.00 | 0.00 | 0.00 | 95 | 1014.9 |
| 20260510034558 | 9 | 298 | 8.0 | 12.9 | 0.00 | 0.00 | 0.00 | 95 | 1014.8 |
| 20260510034045 | 9 | 305 | 6.4 | 14.5 | 0.00 | 0.00 | 0.00 | 94 | 1014.9 |
| 20260510033548 | 9 | 317 | 8.0 | 14.5 | 0.00 | 0.00 | 0.00 | 94 | 1014.8 |
| 20260510033049 | 9 | 304 | 8.0 | 14.5 | 0.00 | 0.00 | 0.00 | 94 | 1014.7 |
| 20260510032544 | 9 | 298 | 8.0 | 16.1 | 0.00 | 0.00 | 0.00 | 94 | 1014.7 |
| 20260510032044 | 9 | 295 | 8.0 | 16.1 | 0.00 | 0.00 | 0.00 | 94 | 1014.7 |
| 20260510031602 | 9 | 311 | 9.7 | 16.1 | 0.00 | 0.00 | 0.00 | 94 | 1014.7 |
| 20260510031044 | 9 | 296 | 8.0 | 16.1 | 0.00 | 0.00 | 0.00 | 94 | 1014.7 |
| 20260510030543 | 9 | 298 | 8.0 | 16.1 | 0.00 | 0.00 | 0.00 | 94 | 1014.7 |
| 20260510030052 | 9 | 306 | 9.7 | 16.1 | 0.00 | 0.00 | 0.00 | 94 | 1014.6 |
| 20260510025544 | 9 | 307 | 8.0 | 16.1 | 0.00 | 0.00 | 0.00 | 94 | 1014.5 |
| 20260510025044 | 9 | 300 | 8.0 | 16.1 | 0.00 | 0.00 | 0.00 | 93 | 1014.6 |
| 20260510024548 | 10 | 303 | 8.0 | 14.5 | 0.00 | 0.00 | 0.00 | 93 | 1014.6 |
| 20260510024044 | 10 | 293 | 8.0 | 14.5 | 0.00 | 0.00 | 0.00 | 93 | 1014.5 |
| 20260510023544 | 10 | 312 | 8.0 | 14.5 | 0.00 | 0.00 | 0.00 | 93 | 1014.5 |
| 20260510023053 | 10 | 310 | 6.4 | 16.1 | 0.00 | 0.00 | 0.00 | 92 | 1014.5 |
| 20260510022544 | 10 | 309 | 9.7 | 17.7 | 0.00 | 0.00 | 0.00 | 92 | 1014.5 |
| 20260510022044 | 10 | 302 | 11.3 | 17.7 | 0.00 | 0.00 | 0.00 | 92 | 1014.5 |
| 20260510021559 | 10 | 311 | 12.9 | 17.7 | 0.00 | 0.00 | 0.00 | 91 | 1014.5 |
| 20260510021044 | 10 | 307 | 11.3 | 19.3 | 0.00 | 0.00 | 0.00 | 91 | 1014.6 |
| 20260510020543 | 10 | 296 | 12.9 | 19.3 | 0.00 | 0.00 | 0.00 | 91 | 1014.6 |
| 20260510020051 | 11 | 309 | 12.9 | 19.3 | 0.00 | 0.00 | 0.00 | 90 | 1014.6 |
| 20260510015545 | 11 | 311 | 12.9 | 19.3 | 0.00 | 0.00 | 0.00 | 89 | 1014.6 |
| 20260510015039 | 11 | 294 | 12.9 | 19.3 | 0.00 | 0.00 | 0.00 | 88 | 1014.7 |
| 20260510014552 | 11 | 309 | 12.9 | 19.3 | 0.00 | 0.00 | 0.00 | 88 | 1014.7 |
| 20260510014043 | 11 | 321 | 12.9 | 19.3 | 0.00 | 0.00 | 0.00 | 88 | 1014.8 |
| 20260510013547 | 12 | 303 | 12.9 | 19.3 | 0.00 | 0.00 | 0.00 | 87 | 1014.8 |
| 20260510013104 | 12 | 288 | 12.9 | 19.3 | 0.00 | 0.00 | 0.00 | 87 | 1014.9 |
| 20260510012545 | 12 | 290 | 12.9 | 17.7 | 0.00 | 0.00 | 0.00 | 87 | 1014.9 |
| 20260510012043 | 12 | 313 | 12.9 | 17.7 | 0.00 | 0.00 | 0.00 | 86 | 1014.8 |
| 20260510011546 | 12 | 294 | 11.3 | 17.7 | 0.00 | 0.00 | 0.00 | 86 | 1014.9 |
| 20260510011044 | 12 | 297 | 12.9 | 19.3 | 0.00 | 0.00 | 0.00 | 86 | 1014.8 |
| 20260510010540 | 12 | 282 | 12.9 | 19.3 | 0.00 | 0.00 | 0.00 | 86 | 1014.7 |
| 20260510010051 | 12 | 302 | 11.3 | 19.3 | 0.00 | 0.00 | 0.00 | 85 | 1015.0 |
| 20260510005540 | 12 | 292 | 11.3 | 19.3 | 0.00 | 0.00 | 0.00 | 85 | 1015.0 |
| 20260510005042 | 13 | 310 | 12.9 | 19.3 | 0.00 | 0.00 | 0.00 | 84 | 1015.1 |
| 20260510004551 | 13 | 315 | 12.9 | 19.3 | 0.00 | 0.00 | 0.00 | 83 | 1015.1 |
| 20260510004040 | 13 | 299 | 11.3 | 19.3 | 0.00 | 0.00 | 0.00 | 82 | 1014.9 |
| 20260510003544 | 13 | 304 | 11.3 | 19.3 | 0.00 | 0.00 | 0.00 | 82 | 1014.8 |
| 20260510003051 | 13 | 302 | 11.3 | 19.3 | 0.00 | 0.00 | 0.00 | 81 | 1015.0 |
| 20260510002547 | 13 | 300 | 11.3 | 19.3 | 0.00 | 0.00 | 0.00 | 81 | 1014.9 |
| 20260510002043 | 13 | 305 | 12.9 | 19.3 | 0.00 | 0.00 | 0.00 | 81 | 1014.9 |
| 20260510001554 | 13 | 309 | 11.3 | 19.3 | 0.00 | 0.00 | 0.00 | 81 | 1014.9 |
| 20260510001043 | 14 | 304 | 12.9 | 17.7 | 0.00 | 0.00 | 0.00 | 80 | 1014.9 |
| 20260510000543 | 14 | 300 | 11.3 | 17.7 | 0.00 | 0.00 | 0.00 | 80 | 1015.0 |
| 20260510000051 | 15 | 304 | 9.7 | 17.7 | 0.00 | 0.00 | 0.00 | 79 | 1015.0 |
| 20260509235545 | 15 | 298 | 9.7 | 17.7 | 0.00 | 0.00 | 0.00 | 78 | 1015.1 |
| 20260509235043 | 15 | 309 | 9.7 | 17.7 | 0.00 | 0.00 | 0.00 | 77 | 1015.1 |
| 20260509234547 | 15 | 289 | 8.0 | 16.1 | 0.00 | 0.00 | 0.00 | 77 | 1015.0 |
| 20260509234045 | 15 | 313 | 9.7 | 16.1 | 0.00 | 0.00 | 0.00 | 77 | 1015.1 |
| 20260509233544 | 15 | 304 | 8.0 | 14.5 | 0.00 | 0.00 | 0.00 | 77 | 1015.0 |
| 20260509233046 | 16 | 301 | 8.0 | 16.1 | 0.00 | 0.00 | 0.00 | 76 | 1015.0 |
| 20260509232546 | 16 | 298 | 8.0 | 17.7 | 0.00 | 0.00 | 0.00 | 76 | 1015.0 |
| 20260509232045 | 16 | 286 | 8.0 | 20.9 | 0.00 | 0.00 | 0.00 | 74 | 1015.1 |
| 20260509231559 | 16 | 299 | 9.7 | 20.9 | 0.00 | 0.00 | 0.00 | 75 | 1015.2 |
| 20260509231043 | 16 | 293 | 9.7 | 19.3 | 0.00 | 0.00 | 0.00 | 75 | 1015.1 |
| 20260509230543 | 16 | 286 | 9.7 | 19.3 | 0.00 | 0.00 | 0.00 | 75 | 1015.2 |
| 20260509230054 | 16 | 303 | 9.7 | 16.1 | 0.00 | 0.00 | 0.00 | 74 | 1015.2 |
| 20260509225544 | 16 | 298 | 9.7 | 17.7 | 0.00 | 0.00 | 0.00 | 75 | 1015.2 |
| 20260509225043 | 16 | 292 | 11.3 | 17.7 | 0.00 | 0.00 | 0.00 | 75 | 1015.2 |
| 20260509224557 | 16 | 290 | 9.7 | 17.7 | 0.00 | 0.00 | 0.00 | 75 | 1015.3 |
| 20260509224043 | 16 | 296 | 11.3 | 17.7 | 0.00 | 0.00 | 0.00 | 76 | 1015.3 |
| 20260509223543 | 16 | 292 | 9.7 | 16.1 | 0.00 | 0.00 | 0.00 | 76 | 1015.3 |
| 20260509223049 | 16 | 300 | 11.3 | 17.7 | 0.00 | 0.00 | 0.00 | 76 | 1015.3 |
| 20260509222544 | 16 | 288 | 9.7 | 17.7 | 0.00 | 0.00 | 0.00 | 76 | 1015.4 |
| 20260509222044 | 16 | 298 | 9.7 | 17.7 | 0.00 | 0.00 | 0.00 | 76 | 1015.4 |
| 20260509221551 | 16 | 294 | 9.7 | 17.7 | 0.00 | 0.00 | 0.00 | 76 | 1015.5 |
| 20260509221044 | 16 | 299 | 11.3 | 19.3 | 0.00 | 0.00 | 0.00 | 76 | 1015.4 |
| 20260509220543 | 16 | 301 | 11.3 | 19.3 | 0.00 | 0.00 | 0.00 | 76 | 1015.5 |
| 20260509220055 | 16 | 309 | 11.3 | 19.3 | 0.00 | 0.00 | 0.00 | 76 | 1015.5 |
| 20260509215545 | 16 | 286 | 11.3 | 19.3 | 0.00 | 0.00 | 0.00 | 76 | 1015.4 |
| 20260509215044 | 16 | 296 | 11.3 | 19.3 | 0.00 | 0.00 | 0.00 | 75 | 1015.4 |
| 20260509214554 | 16 | 299 | 11.3 | 20.9 | 0.00 | 0.00 | 0.00 | 75 | 1015.4 |
| 20260509214045 | 17 | 307 | 11.3 | 20.9 | 0.00 | 0.00 | 0.00 | 75 | 1015.6 |
| 20260509213543 | 17 | 294 | 11.3 | 19.3 | 0.00 | 0.00 | 0.00 | 74 | 1015.6 |
| 20260509213056 | 17 | 298 | 9.7 | 20.9 | 0.00 | 0.00 | 0.00 | 75 | 1015.7 |
| 20260509212546 | 17 | 302 | 11.3 | 20.9 | 0.00 | 0.00 | 0.00 | 75 | 1015.7 |
| 20260509212043 | 17 | 305 | 11.3 | 19.3 | 0.00 | 0.00 | 0.00 | 75 | 1015.7 |
| 20260509211551 | 17 | 312 | 9.7 | 19.3 | 0.00 | 0.00 | 0.00 | 74 | 1015.7 |
| 20260509211043 | 17 | 306 | 11.3 | 19.3 | 0.00 | 0.00 | 0.00 | 75 | 1015.8 |
| 20260509210544 | 17 | 298 | 9.7 | 17.7 | 0.00 | 0.00 | 0.00 | 74 | 1015.9 |
| 20260509210107 | 17 | 300 | 9.7 | 17.7 | 0.00 | 0.00 | 0.00 | 73 | 1016.0 |
| 20260509205543 | 17 | 311 | 8.0 | 17.7 | 0.00 | 0.00 | 0.00 | 73 | 1016.0 |
| 20260509205047 | 18 | 298 | 9.7 | 16.1 | 0.00 | 0.00 | 0.00 | 73 | 1016.1 |
| 20260509204559 | 18 | 301 | 9.7 | 16.1 | 0.00 | 0.00 | 0.00 | 73 | 1016.0 |
| 20260509204046 | 18 | 303 | 9.7 | 16.1 | 0.00 | 0.00 | 0.00 | 74 | 1016.1 |
| 20260509203542 | 18 | 298 | 9.7 | 16.1 | 0.00 | 0.00 | 0.00 | 74 | 1016.2 |
| 20260509203057 | 18 | 313 | 9.7 | 16.1 | 0.00 | 0.00 | 0.00 | 73 | 1016.2 |
| 20260509202544 | 18 | 317 | 9.7 | 16.1 | 0.00 | 0.00 | 0.00 | 74 | 1016.2 |
| 20260509202047 | 18 | 305 | 9.7 | 16.1 | 0.00 | 0.00 | 0.00 | 75 | 1016.2 |
| 20260509201556 | 17 | 299 | 9.7 | 16.1 | 0.00 | 0.00 | 0.00 | 75 | 1016.2 |
| 20260509201043 | 17 | 315 | 9.7 | 17.7 | 0.00 | 0.00 | 0.00 | 75 | 1016.3 |
| 20260509200547 | 17 | 342 | 8.0 | 17.7 | 0.00 | 0.00 | 0.00 | 75 | 1016.3 |
| 20260509200109 | 17 | 311 | 8.0 | 17.7 | 0.00 | 0.00 | 0.00 | 75 | 1016.2 |
| 20260509195549 | 17 | 303 | 9.7 | 17.7 | 0.00 | 0.00 | 0.00 | 75 | 1016.2 |
| 20260509195046 | 17 | 310 | 8.0 | 17.7 | 0.00 | 0.00 | 0.00 | 74 | 1016.3 |
| 20260509194559 | 17 | 298 | 8.0 | 14.5 | 0.00 | 0.00 | 0.00 | 75 | 1016.4 |
| 20260509194120 | 17 | 310 | 8.0 | 14.5 | 0.00 | 0.00 | 0.00 | 74 | 1016.4 |
| 20260509193543 | 17 | 311 | 8.0 | 14.5 | 0.00 | 0.00 | 0.00 | 75 | 1016.3 |
| 20260509193053 | 17 | 315 | 6.4 | 14.5 | 0.00 | 0.00 | 0.00 | 75 | 1016.4 |
| 20260509192544 | 17 | 298 | 6.4 | 12.9 | 0.00 | 0.00 | 0.00 | 74 | 1016.4 |
| 20260509192044 | 17 | 310 | 6.4 | 12.9 | 0.00 | 0.00 | 0.00 | 74 | 1016.3 |
| 20260509191547 | 17 | 312 | 6.4 | 12.9 | 0.00 | 0.00 | 0.00 | 75 | 1016.3 |
| 20260509191043 | 17 | 305 | 4.8 | 11.3 | 0.00 | 0.00 | 0.00 | 75 | 1016.4 |
| 20260509190543 | 17 | 297 | 4.8 | 11.3 | 0.00 | 0.00 | 0.00 | 75 | 1016.4 |
| 20260509190056 | 17 | 306 | 4.8 | 11.3 | 0.00 | 0.00 | 0.00 | 76 | 1016.4 |
| 20260509185544 | 17 | 312 | 4.8 | 11.3 | 0.00 | 0.00 | 0.00 | 75 | 1016.4 |
| 20260509185044 | 16 | 314 | 4.8 | 11.3 | 0.00 | 0.00 | 0.00 | 76 | 1016.4 |
| 20260509184624 | 16 | 307 | 3.2 | 8.0 | 0.00 | 0.00 | 0.00 | 75 | 1016.5 |
| 20260509184047 | 16 | 309 | 4.8 | 8.0 | 0.00 | 0.00 | 0.00 | 76 | 1016.4 |
| 20260509183543 | 16 | 310 | 3.2 | 8.0 | 0.00 | 0.00 | 0.00 | 76 | 1016.4 |
| 20260509183058 | 16 | 325 | 3.2 | 6.4 | 0.00 | 0.00 | 0.00 | 76 | 1016.4 |
| 20260509182545 | 16 | 326 | 3.2 | 8.0 | 0.00 | 0.00 | 0.00 | 77 | 1016.4 |
| 20260509182044 | 16 | 326 | 3.2 | 8.0 | 0.00 | 0.00 | 0.00 | 76 | 1016.4 |
| 20260509181551 | 15 | 327 | 3.2 | 8.0 | 0.00 | 0.00 | 0.00 | 77 | 1016.5 |
| 20260509181044 | 15 | 311 | 4.8 | 8.0 | 0.00 | 0.00 | 0.00 | 77 | 1016.4 |
| 20260509180545 | 15 | 309 | 3.2 | 8.0 | 0.00 | 0.00 | 0.00 | 78 | 1016.3 |
| 20260509180100 | 15 | 314 | 3.2 | 8.0 | 0.00 | 0.00 | 0.00 | 78 | 1016.4 |
| 20260509175545 | 15 | 324 | 3.2 | 6.4 | 0.00 | 0.00 | 0.00 | 79 | 1016.3 |
| 20260509175042 | 15 | 324 | 3.2 | 8.0 | 0.00 | 0.00 | 0.00 | 79 | 1016.4 |
| 20260509174551 | 15 | 324 | 3.2 | 8.0 | 0.00 | 0.00 | 0.00 | 79 | 1016.4 |
| 20260509174042 | 14 | 319 | 3.2 | 6.4 | 0.00 | 0.00 | 0.00 | 79 | 1016.4 |
| 20260509173543 | 14 | 303 | 3.2 | 6.4 | 0.00 | 0.00 | 0.00 | 79 | 1016.3 |
| 20260509173054 | 14 | 323 | 1.6 | 4.8 | 0.00 | 0.00 | 0.00 | 80 | 1016.3 |
| 20260509172544 | 13 | 323 | 3.2 | 4.8 | 0.00 | 0.00 | 0.00 | 81 | 1016.2 |
| 20260509172043 | 13 | 323 | 1.6 | 4.8 | 0.00 | 0.00 | 0.00 | 81 | 1016.3 |
| 20260509171549 | 13 | 323 | 1.6 | 6.4 | 0.00 | 0.00 | 0.00 | 83 | 1016.2 |
| 20260509171047 | 12 | 323 | 1.6 | 6.4 | 0.00 | 0.00 | 0.00 | 83 | 1016.1 |
| 20260509170546 | 12 | 323 | 3.2 | 6.4 | 0.00 | 0.00 | 0.00 | 84 | 1016.2 |
| 20260509170058 | 12 | 323 | 3.2 | 6.4 | 0.00 | 0.00 | 0.00 | 85 | 1016.1 |
| 20260509165543 | 11 | 323 | 3.2 | 6.4 | 0.00 | 0.00 | 0.00 | 85 | 1016.2 |
| 20260509165043 | 11 | 323 | 3.2 | 6.4 | 0.00 | 0.00 | 0.00 | 86 | 1016.3 |
| 20260509164551 | 11 | 323 | 3.2 | 6.4 | 0.00 | 0.00 | 0.00 | 86 | 1016.3 |
| 20260509164047 | 11 | 323 | 3.2 | 6.4 | 0.00 | 0.00 | 0.00 | 86 | 1016.2 |
| 20260509163545 | 11 | 323 | 3.2 | 6.4 | 0.00 | 0.00 | 0.00 | 86 | 1016.3 |
| 20260509163109 | 10 | 323 | 3.2 | 6.4 | 0.00 | 0.00 | 0.00 | 86 | 1016.2 |
| 20260509162546 | 10 | 323 | 3.2 | 6.4 | 0.00 | 0.00 | 0.00 | 86 | 1016.2 |
| 20260509162044 | 10 | 323 | 4.8 | 8.0 | 0.00 | 0.00 | 0.00 | 85 | 1016.2 |
| 20260509161550 | 10 | 323 | 4.8 | 8.0 | 0.00 | 0.00 | 0.00 | 84 | 1016.2 |
| 20260509161046 | 11 | 323 | 3.2 | 6.4 | 0.00 | 0.00 | 0.00 | 84 | 1016.2 |
| 20260509160544 | 11 | 315 | 3.2 | 6.4 | 0.00 | 0.00 | 0.00 | 83 | 1016.3 |
| 20260509160051 | 11 | 313 | 1.6 | 4.8 | 0.00 | 0.00 | 0.00 | 82 | 1016.3 |
| 20260509155543 | 11 | 313 | 3.2 | 4.8 | 0.00 | 0.00 | 0.00 | 81 | 1016.1 |
| 20260509155043 | 11 | 313 | 1.6 | 4.8 | 0.00 | 0.00 | 0.00 | 79 | 1016.1 |
| 20260509154554 | 12 | 313 | 1.6 | 4.8 | 0.00 | 0.00 | 0.00 | 77 | 1016.2 |
| 20260509154048 | 12 | 313 | 0.0 | 4.8 | 0.00 | 0.00 | 0.00 | 74 | 1016.2 |
| 20260509153544 | 13 | 0 | 1.6 | 4.8 | 0.00 | 0.00 | 0.00 | 72 | 1016.1 |
| 20260509153044 | 13 | 311 | 3.2 | 4.8 | 0.00 | 0.00 | 0.00 | 67 | 1016.2 |
| 20260509152544 | 15 | 0 | 0.0 | 3.2 | 0.00 | 0.00 | 0.00 | 68 | 1016.0 |
| 20260509152045 | 15 | 0 | 0.0 | 3.2 | 0.00 | 0.00 | 0.00 | 69 | 1016.0 |
| 20260509151557 | 14 | 0 | 0.0 | 3.2 | 0.00 | 0.00 | 0.00 | 69 | 1016.0 |
| 20260509151044 | 14 | 0 | 0.0 | 1.6 | 0.00 | 0.00 | 0.00 | 72 | 1015.9 |
| 20260509150545 | 13 | 0 | 0.0 | 1.6 | 0.00 | 0.00 | 0.00 | 73 | 1015.8 |
| 20260509150054 | 13 | 0 | 0.0 | 0.0 | 0.00 | 0.00 | 0.00 | 70 | 1015.8 |
| 20260509145544 | 12 | 0 | 0.0 | 3.2 | 0.00 | 0.03 | 0.00 | 71 | 1015.9 |
| 20260509145044 | 12 | 0 | 0.0 | 4.8 | 0.00 | 0.03 | 0.00 | 70 | 1015.7 |
| 20260509144553 | 12 | 309 | 0.0 | 4.8 | 0.00 | 0.03 | 0.00 | 70 | 1015.8 |
| 20260509144043 | 11 | 309 | 3.2 | 4.8 | 0.00 | 0.03 | 0.00 | 70 | 1015.7 |
| 20260509143543 | 11 | 309 | 3.2 | 4.8 | 0.00 | 0.03 | 0.00 | 75 | 1015.7 |
| 20260509143055 | 11 | 309 | 3.2 | 8.0 | 0.00 | 0.03 | 0.00 | 74 | 1015.6 |
| 20260509142543 | 11 | 309 | 3.2 | 8.0 | 0.00 | 0.03 | 0.00 | 74 | 1015.7 |
| 20260509142047 | 11 | 309 | 4.8 | 8.0 | 0.00 | 0.03 | 0.00 | 75 | 1015.7 |
| 20260509141559 | 11 | 302 | 4.8 | 8.0 | 0.00 | 0.03 | 0.00 | 73 | 1015.6 |
| 20260509141048 | 11 | 302 | 4.8 | 8.0 | 0.00 | 0.03 | 0.00 | 71 | 1015.4 |
| 20260509140544 | 12 | 306 | 4.8 | 8.0 | 0.00 | 0.03 | 0.00 | 67 | 1015.4 |
| 20260509135544 | 15 | 317 | 3.2 | 6.4 | 0.00 | 0.03 | 0.00 | 57 | 1015.3 |
| 20260509135044 | 15 | 318 | 3.2 | 9.7 | 0.00 | 0.03 | 0.00 | 51 | 1015.4 |
| 20260509134545 | 15 | 318 | 4.8 | 11.3 | 0.00 | 0.03 | 0.00 | 52 | 1015.3 |
| 20260509134043 | 15 | 313 | 6.4 | 11.3 | 0.00 | 0.03 | 0.00 | 53 | 1015.3 |
| 20260509133544 | 15 | 313 | 6.4 | 12.9 | 0.00 | 0.03 | 0.00 | 54 | 1015.3 |
| 20260509133051 | 14 | 318 | 6.4 | 12.9 | 0.00 | 0.03 | 0.00 | 56 | 1015.2 |
| 20260509132544 | 13 | 315 | 6.4 | 12.9 | 0.00 | 0.03 | 0.00 | 57 | 1015.3 |
| 20260509132043 | 13 | 315 | 6.4 | 12.9 | 0.00 | 0.03 | 0.00 | 58 | 1015.2 |
| 20260509131551 | 13 | 315 | 6.4 | 12.9 | 0.00 | 0.03 | 0.00 | 58 | 1015.2 |
| 20260509131043 | 12 | 313 | 8.0 | 12.9 | 0.00 | 0.03 | 0.00 | 62 | 1015.3 |
| 20260509130546 | 11 | 312 | 8.0 | 12.9 | 0.00 | 0.03 | 0.00 | 65 | 1015.3 |
| 20260509125545 | 12 | 313 | 4.8 | 9.7 | 0.00 | 0.03 | 0.00 | 68 | 1015.3 |
| 20260509125044 | 11 | 316 | 6.4 | 9.7 | 0.00 | 0.03 | 0.00 | 68 | 1015.2 |
| 20260509124552 | 10 | 311 | 6.4 | 8.0 | 0.00 | 0.03 | 0.00 | 72 | 1015.1 |
| 20260509124044 | 10 | 302 | 3.2 | 8.0 | 0.00 | 0.03 | 0.00 | 76 | 1015.1 |
| 20260509123544 | 10 | 298 | 4.8 | 8.0 | 0.00 | 0.03 | 0.00 | 78 | 1015.2 |
| 20260509123058 | 10 | 298 | 4.8 | 8.0 | 0.00 | 0.03 | 0.00 | 78 | 1015.2 |
| 20260509122543 | 10 | 309 | 4.8 | 6.4 | 0.00 | 0.03 | 0.00 | 76 | 1015.2 |
| 20260509122045 | 10 | 309 | 4.8 | 6.4 | 0.00 | 0.03 | 0.00 | 75 | 1015.2 |
| 20260509121554 | 11 | 309 | 4.8 | 8.0 | 0.00 | 0.03 | 0.00 | 73 | 1015.2 |
| 20260509121048 | 11 | 309 | 4.8 | 8.0 | 0.00 | 0.03 | 0.00 | 71 | 1015.2 |